Tracking 35275 objects as of 9-Sep-2026
HD Live streaming from Space Station
objects crossing your sky now

TRISAT


TRISAT is no longer on orbit
TRISAT is classified as:


NORAD ID: 46280
Int'l Code: 2020-061J
Launch date: September 3, 2020
Source: Republic of Slovenia (SVN)
Launch site: FRENCH GUIANA (FRGUI)
Decay date: 2024-09-29

Uplink (MHz): 145.900
Downlink (MHz): 436.500
Beacon (MHz): 435.6125
Mode: 9k6 GMSK CCSDS
Call sign:
Status: Reentered

Your satellite tracking list
Your tracking list is empty




NASA's NSSDC Master Catalog

Two Line Element Set (TLE):
1 46280U 20061J   24273.79852614  .17437275  25179-5  27557-3 0  9993
2 46280  97.2833 349.0244 0015789 271.7873  88.1622 16.47229092226228
Source of the keplerian elements: AFSPC